Regional Weather Roundup
Issued by NWS Pendleton, OR

Home | Current Version | Previous Version | Text Only | Print | Product List | Glossary On
Versions: 1 2 3 4 5 6 7 8 9 10 11 12 13 14 15 16 17 18 19 20 21 22 23 24 25 26 27 28 29 30 31 32 33 34 35 36 37 38 39 40 41 42 43 44 45 46 47 48 49 50
000
ASUS46 KPDT 300025
RWRPDT
PENDLETON REGIONAL WEATHER ROUNDUP
NATIONAL WEATHER SERVICE PENDLETON OREGON
500 PM PDT FRI AUG 29 2014

NOTE: FAIR INDICATES FEW OR NO CLOUDS BELOW 12,000 FEET WITH NO
SIGNIFICANT WEATHER AND/OR OBSTRUCTIONS TO VISIBILITY.

# INDICATES UNOFFICIAL STATION AND DATA

WAZ520-300110-
EAST SLOPES OF WASHINGTON CASCADES

CITY            SKY/WX      TMP DP  RH  WIND    PRES   REMARKS
#CLE ELUM HS    N/A         66  46  48  W9      29.90
#CLE ELUM 2NW   N/A         63  44  50  SW2     N/A
#CLE ELUM LAKE  N/A         60  45  58  NE5     29.85S
#CLIFFDEL 2NW   N/A         65  47  52  NW5     N/A
#GLENWOOD       N/A         67  52  59  S8      29.85S
#NELSON         N/A         65  49  56  CALM    29.88S
#NELSON 3SW     N/A         62  47  58  W1      30.06
#NILE           N/A         66  48  52  W6      29.12R
#PEOH POINT     N/A         56  44  64  W5      N/A
#RONALD 2NW     N/A         63  46  54  W2      29.84S
#TEANAWAY 4NE   N/A         66  49  54  CALM    N/A
#TROUT LAKE 1NE N/A         68  48  49  W9      29.88
$$

WAZ521-300110-
SIMCOE HIGHLANDS

CITY            SKY/WX      TMP DP  RH  WIND    PRES   REMARKS
#BICKLETON HS   N/A         71  31  23  W9      29.97S
#CENTERVILLE 1SWN/A         70  51  51  W15     29.83R
#GOLDENDALE     N/A         73  48  41  W15G25  N/A
#GOLDENDALE 1NE N/A         71  42  35  SW6     N/A
#GOLDENDALE 1S  N/A         71  51  49  W9      29.88S
#GOLDENDALE 5WNWN/A         71  51  49  W16     29.82S
#GOODNOE HILLS  N/A         77  51  40  W25G32  29.80S
#LYLE 6NE       N/A         69  54  59  SW9     29.83S
$$

WAZ026-300110-
KITTITAS VALLEY

CITY            SKY/WX      TMP DP  RH  WIND    PRES   REMARKS
ELLENSBURG AP   CLOUDY      69  47  45  NW23G31 29.89
6HR MIN TEMP:   69; 6HR MAX TEMP:   79;

#ELLENSBURG CWU N/A         67  47  49  N17     29.79F
#ELLENSBURG 3NE N/A         66  48  52  N10     29.91S
#ELLENSBURG     N/A         69  48  47  NW7     N/A
#ELLENSBURG 1E  N/A         68  45  44  NW1     N/A
#KITTITAS 3S    N/A         67  48  50  W12     29.80S
#THORP 6N       N/A         63  45  52  NW18G32 29.86F
$$

WAZ027-300110-
YAKIMA VALLEY

CITY            SKY/WX      TMP DP  RH  WIND    PRES   REMARKS
YAKIMA AIRPORT  N/A         79  45  30  MISG    N/A
#COWICHE 1N     N/A         69  49  49  W9      30.05S
#DONALD 2NE     N/A         77  44  31  SW3     30.17R
#GRANDVIEW      N/A         81  49  33  W3      29.78S
#MABTON         N/A         81  54  39  W7      29.80S
#MOXEE 2E       N/A         74  33  22  N8      29.79R
#NACHES 2SW     N/A         69  52  55  W7      29.89S
#OUTLOOK DOT    N/A         N/A N/A N/A W5      N/A
#SELAH 8E       N/A         70  46  42  N14     N/A
#TERRACE HTS    N/A         78  47  34  N7      29.75
#TOPPENISH      N/A         77  52  42  N3      29.71R
#WAPATO 4NE     N/A         77  44  31  SW3     30.17R
#WEST VALLEY    N/A         76  45  33  NW7     29.77
#W YAKIMA       N/A         73  49  43  N3      29.80R
#WHITE SWAN 5E  N/A         78  50  38  W14     29.79S
#WILEY CITY 3W  N/A         74  40  29  CALM    29.85S
$$

WAZ028-300110-
LOWER COLUMBIA BASIN...WASHINGTON

CITY            SKY/WX      TMP DP  RH  WIND    PRES   REMARKS
PASCO           CLOUDY      89  46  23  W15     29.77
6HR MIN TEMP:   79; 6HR MAX TEMP:   91;

PROSSER AWOS    N/A         82  55  40  W6      29.83
#BASIN CITY 5SW N/A         78  53  42  W14     29.79R
#BENTON CITY    N/A         82  52  35  NW5     29.66S
#CONNELL 5N     N/A         81  50  34  NW6     29.74S
#CONNELL 5NW    N/A         77  53  43  NW7     29.73R
#ELTOPIA        N/A         79  55  44  N7      29.72R
#ELTOPIA 6NW    N/A         76  55  48  NW12    28.78R
#KENNEWICK 3S   N/A         87  52  30  CALM    29.75
#PATERSON       N/A         84  48  29  W14G26  29.75S
#PROSSER        N/A         83  47  28  NW5     29.76S
#TOUCHET 2S     N/A         86  44  23  W12     29.74R
#WEST PASCO     N/A         87  53  31  NW7     29.75R
$$

WAZ029-300110-
FOOTHILLS OF THE BLUES...WASHINGTON

CITY            SKY/WX      TMP DP  RH  WIND    PRES   REMARKS
WALLA WALLA AP  MOCLDY      87  37  17  W14     29.83
6HR MIN TEMP:   81; 6HR MAX TEMP:   89;

#COLLEGE PLACE  N/A         89  40  18  W7      29.79S
#DAYTON SCHOOL  N/A         82  36  19  W6      29.82S
#LOWDEN 2SE     N/A         84  48  29  W7      29.75R
#PLEASANT VIEW 1N/A         83  46  27  SW8     29.79
#PRESCOTT       N/A         86  48  27  W3      29.74F
#SUDBURY        N/A         86  N/A N/A W8      N/A
#WHITMAN COLLEGEN/A         85  42  22  SW13    29.80S
#WAITSBURG 8N   N/A         82  33  17  S20     29.71F
#WALLA WALLA 5E N/A         85  42  22  W9      N/A
#WALLA WALLA U  N/A         87  44  22  W5      29.75S
#WHITMAN MISSIONN/A         86  46  25  W7      29.77
$$

WAZ030-300110-
BLUE MOUNTAINS...WASHINGTON

CITY            SKY/WX      TMP DP  RH  WIND    PRES   REMARKS
$$

ORZ009-041-WAZ024-300110-
COLUMBIA RIVER GORGE

CITY            SKY/WX      TMP DP  RH  WIND    PRES   REMARKS
HOOD RIVER AP   CLOUDY      73  50  44  NW3     29.92
THE DALLES AP   CLOUDY      77  48  36  NW17G32 29.87
6HR MIN TEMP:   77; 6HR MAX TEMP:   83;

#ARLINGTON AIRPON/A         77  51  40  W17     N/A
#ARLINGTON HS   N/A         80  49  34  N16     29.71R
#MARYHILL 2W    N/A         74  51  44  SW12    N/A
#MOSIER 1S      N/A         71  41  34  SW17    29.94S
#MURDOCK        N/A         76  55  48  W16G29  29.88S
#RUFUS DOT      N/A         79  54  42  N13     N/A

$$

ORZ510-300110-
NORTH CENTRAL OREGON

CITY            SKY/WX      TMP DP  RH  WIND    PRES   REMARKS
#COW CYN RST AREN/A         73  45  37  W8      N/A
#DUFUR 9E       N/A         66  49  54  W22     29.89S
#GRASS VALLEY   N/A         67  48  50  W5      N/A
#GRASS VALLEY 1SN/A         71  51  49  N9      29.88
#KENT DOT       N/A         70  46  42  NW15    N/A
#MAUPIN SCHOOL  N/A         76  55  48  NW13G26 28.76R
#MORO SCHOOL    N/A         69  54  59  NW20G29 29.93S
#SHANIKO 5WSW   N/A         68  46  45  NW15    N/A
#TYGH VALLEY 2NEN/A         77  50  39  W6      29.83R
#WAPANITIA AIRPON/A         72  52  49  W9      29.84S
#WASCO DOT      N/A         75  52  45  W15     N/A
#WASCO AIRPORT  N/A         72  44  37  W22     N/A
#WASCO 5NE      N/A         73  49  43  W12     29.83S
$$

ORZ511-300110-
CENTRAL OREGON

CITY            SKY/WX      TMP DP  RH  WIND    PRES   REMARKS
BEND AIRPORT    PTCLDY      75  32  21  N15     29.96S
MADRAS AIRPORT  PTCLDY      77  48  36  N18     29.94
#BEND 6E        N/A         75  34  22  CALM    29.75R
#BEND 1SW       N/A         77  43  30  SW1     N/A
#BEND-AWBREY    N/A         77  44  31  E2      29.79S
#BEND-KIM LN    N/A         78  42  28  W7      29.92S
#CROOKED RVR RANN/A         78  44  30  N7      29.80R
#CULVER         N/A         77  42  29  W6      29.89S
#LAKE BILLY CHINN/A         76   8   7  W6      29.96F
#POWELL BUTTE   N/A         76  44  32  N8      29.60F
#PRINEVILLE 3N  N/A         77  46  33  W3      29.75S
#WARM SPRINGS   N/A         78  54  43  W8      29.86S


ORZ509-300110-
EAST SLOPES OF OREGON CASCADES

CITY            SKY/WX      TMP DP  RH  WIND    PRES   REMARKS
#BLUE BOX PASS  N/A         57   5  12  NW5     N/A
#BLACK BUTTE RNCN/A         73  49  43  CALM    29.83S
#CAMP SHERMAN   N/A         76  41  28  N5      29.87F
#LA PINE DOT    N/A         74  34  23  W13     N/A
#LA PINE 4NW    N/A         75  45  34  NW5     29.85
#LAVA BUTTE DOT N/A         72  42  34  S2      N/A
#SISTERS AIRPOR N/A         74  49  41  N13G29  29.94R
#SISTERS ODOT   N/A         74  N/A N/A S8      N/A
#SISTERS 1NW    N/A         75  N/A N/A W17     N/A
#SISTERS 3N     N/A         73  45  37  SW2     N/A
#SUNRIVER       N/A         72  48  43  W2      29.72S
#SUNRIVER AP    N/A         75  39  27  CALM    29.78
#TUMALO 3W      N/A         74  38  27  N15     29.68R
#WANOGA BUTTE D N/A         62  39  43  NW7     N/A

$$

ORZ044-300110-
LOWER COLUMBIA BASIN...OREGON

CITY            SKY/WX      TMP DP  RH  WIND    PRES   REMARKS
HERMISTON       MOCLDY      85  45  25  W20G26  29.79
6HR MIN TEMP:   81; 6HR MAX TEMP:   90;

#BOARDMAN SCHOOLN/A         82  49  32  NW5     29.78S
#BOARDMAN 3W    N/A         82  48  31  W10     29.50S
#BOARDMAN 8SW   N/A         81  52  37  W12     29.79R
#ECHO 8SW       N/A         84  47  28  W12     29.79S
#IONE SCHOOL    N/A         80  48  33  W17G29  29.85
#IRRIGON 4NW    N/A         87  49  27  SW15    N/A
#UMATILLA SCHOOLN/A         86  60  42  W10     29.84S
#UMATILLA       N/A         85  48  28  SW12G24 29.75S
$$

ORZ507-300110-
NORTHERN FOOTHILLS OF THE BLUES

CITY            SKY/WX      TMP DP  RH  WIND    PRES   REMARKS
PENDLETON AIRPT MOCLDY      84  38  19  W22G26  29.84
6HR MIN TEMP:   79; 6HR MAX TEMP:   86;

#ADAMS 3WNW     N/A         83  41  23  W10     29.77S
#ATHENA         N/A         82  46  28  W6      29.79
#HELIX SCHOOL   N/A         81  43  26  NW10    29.78S
#HELIX 3N       N/A         79  39  24  W16G24  29.84R
#HOLDMAN 5SE    N/A         83  44  25  W12     29.85S
#HOLDMAN 6E     N/A         80  41  25  E13     29.59S
#M-F GROVE ELEM N/A         86  39  19  W5      29.81S
#M-FREEWATER 5SEN/A         82  49  32  W5      29.83S
#PDT AQUATIC CTRN/A         83  40  22  W7      29.87S
#PDT SUNRIDGE   N/A         84  44  25  W12     29.84R
#PENDLETON 7NW  N/A         82  52  35  W17G24  31.42S
#PILOT ROCK     N/A         80  45  29  W8      29.88R
#TUTUILLA       N/A         83  46  27  W7      29.72F
#UMAPINE 2E     N/A         84  50  31  W3      29.77R
#WESTON SCHOOL  N/A         81  37  21  N6      29.81S

$$

ORZ508-300110-
SOUTHERN FOOTHILLS OF THE BLUES

CITY            SKY/WX      TMP DP  RH  WIND    PRES   REMARKS
LEXINGTON       PTCLDY      79  46  31  W17     29.90R
#AJAX           N/A         69  44  40  W14     29.88R
#CONDON SCHOOL  N/A         69  51  53  NW13    29.90S
#CONDON 5W      N/A         66  47  50  NW13    29.93S
#FOSSIL SCHOOL  N/A         78  50  38  NW7     29.89
#HEPPNER 4NE    N/A         72  46  39  NW20G28 29.80R
#LEXINGTON 2SE  N/A         77  51  40  W10     29.86R
#MIKKALO        N/A         72  42  34  W21G28  29.92R
#OLEX 4N        N/A         74  47  38  W20G30  29.85S
#RUGGS 5NE      N/A         71  45  39  W18     30.11S
#RUGGS 2SW      N/A         71  49  46  NW15    29.85R

$$

ORZ502-503-300110-
BLUE MOUNTAINS

CITY            SKY/WX      TMP DP  RH  WIND    PRES   REMARKS
MEACHAM         PTCLDY      75  46  36  MISG    29.95
6HR MIN TEMP:   73; 6HR MAX TEMP:   80;

#BATTLE MTN DOT N/A         70  52  53  N3      N/A
#HEPPNER 15SE   N/A         69  47  45  W5      29.89S
#LADD CYN SMT   N/A         81  40  23  NW15    N/A
#LADD CREEK ODOTN/A         84  50  31  NE9     N/A
#LONG CREEK HS  N/A         79  39  24  NW9     N/A
#N POWDER DOT   N/A         79  48  34  N10     N/A
#PIKES PEAK     N/A         73  37  27  SW13G26 27.99S
#TOLLGATE       N/A         67  46  47  SW2     29.95S
#UKIAH          N/A         76  46  34  N15     29.83R
#WESTON 4E      N/A         77  43  30  SW8     29.73S
$$

ORZ505-300110-
JOHN DAY BASIN

CITY            SKY/WX      TMP DP  RH  WIND    PRES   REMARKS
JOHN DAY        PTCLDY      87  34  15  W16     29.88S
#JOHN DAY KJDY  N/A         87  42  21  NW1     29.99
#DAYVILLE SCHOOLN/A         87  37  17  N8      29.81S
#MONUMENT HS    N/A         86  41  21  N3      29.83S
#MT. VERNON 5SE N/A         82  37  20  W1      29.85S
#WINLOCK        N/A         76  50  40  SW5     29.99S
$$

ORZ506-300110-
OCHOCO AND JOHN DAY HIGHLANDS

CITY            SKY/WX      TMP DP  RH  WIND    PRES   REMARKS
#BUCK CREEK DOT N/A         84  47  28  SW9     N/A
#HORSE RIDGE DO N/A         74  32  21  N15     N/A
#KEYES SMT DOT  N/A         76  36  23  NW12G25 N/A
#PAULINA SCHOOL N/A         84  36  18  W6      29.91S
#PINE MTN OBS   N/A         64  35  34  N10     N/A
#PRAIRIE CITY   N/A         84  44  25  CALM    29.63R
#SENECA 9NW     N/A         82  37  20  SW1     29.72
$$

ORZ049-300110-
GRANDE RONDE VALLEY

CITY            SKY/WX      TMP DP  RH  WIND    PRES   REMARKS
LA GRANDE       PTCLDY      84  43  24  NW22    29.84S
#COVE           N/A         84  52  33  NW6     29.78R
#COVE SCHOOL    N/A         87  42  21  CALM    29.83
#COVE 6NW       N/A         83  46  27  NW15    29.78S
#ELGIN 3N       N/A         81  41  24  W3      29.60R
#ELGIN 1E       N/A         85  47  27  W5      N/A
#IMBLER SCHOOL  N/A         80  47  31  NW18    29.83S
#ISLAND CITY 4N N/A         84  50  31  W5      29.68S
#LADD CYN DOT   N/A         83  49  31  W12     N/A
#LA GRANDE ELEM N/A         81  48  32  N7      29.86R
#UNION 1S       N/A         86  46  25  NW7     29.63S
$$

ORZ050-300110-
WALLOWA COUNTY

CITY            SKY/WX      TMP DP  RH  WIND    PRES   REMARKS
#ENTERPRISE AP  N/A         81  33  18  NW9     29.85S
#ENTERPRISE HS  N/A         82  44  26  NW1     29.88S
#IMNAHA SCHOOL  N/A         90  38  16  CALM    29.66F HX 86
#IMNAHA 10S     N/A         84  44  25  CALM    29.83
#JOSEPH 3N      N/A         78  47  34  W6      29.93S
#JOSEPH 3W      N/A         76  35  22  N5      29.81S
#LOSTINE        N/A         83  45  26  NW3     29.54S
#MT HOWARD 8000 N/A         63  38  39  CALM    30.19F
#PROMISE 1S     N/A         78  48  35  E7      29.85S
#SHEEP RDG 7000 N/A         63  36  36  CALM    29.75F
#WALLOWA SCHOOL N/A         83  46  27  NW2     30.62S



$$



USA.gov is the U.S. government's official web portal to all federal, state and local government web resources and services.